Weather History for KOSC - November, 2012

Change the Weather History Date:

Saturday, November 10, 2012

  Actual Average Record
Temperature  
Mean Temperature 44 °F -  
Max Temperature 49 °F 44 °F 60 °F (2002)
Min Temperature 39 °F 30 °F 23 °F (2003)
Degree Days  
Heating Degree Days 22    
Moisture  
Dew Point 43 °F    
Average Humidity 91    
Maximum Humidity 97    
Minimum Humidity 83    
Precipitation  
Precipitation 0.00 in - - ()
Sea Level Pressure  
Sea Level Pressure 30.08 in    
Wind  
Wind Speed 6 mph (ESE)    
Max Wind Speed 16 mph    
Max Gust Speed 22 mph    
Visibility 4 miles    
Events Rain    
Averages and records for this station are not official NWS values.
T = Trace of Precipitation, MM = Missing Value Source: NWS Daily Summary

Daily Weather History Graph

Daily Weather History Graph

Search for Another Location

Airport or City:

Trip Planner

Search our weather history database for the weather conditions in past years. The results will help you decide how hot, cold, wet, or windy it might be!

Date:

Astronomy

Nov. 10, 2012 Rise Set
Actual Time 7:23 AM EST 5:10 PM EST
Civil Twilight 6:52 AM EST 5:41 PM EST
Nautical Twilight 6:17 AM EST 6:16 PM EST
Astronomical Twilight 5:43 AM EST 6:50 PM EST
Moon 3:19 AM EST (11/10) 3:03 PM EST (11/10)
Length of Visible Light 10h 49m
Length of Day
9h 47m
Waning Crescent, 14% of the Moon is Illuminated
Nov 10
Waning Crescent
Nov 13
New
Nov 20
First Quarter
Nov 28
Full
Dec 6
Last Quarter

Hourly Weather History & Observations

Time (EST) Temp. Windchill Dew Point Humidity Pressure Visibility Wind Dir Wind Speed Gust Speed Precip Events Conditions
12:14 AM 40.3 °F - 39.2 °F 96% 30.14 in 3.0 mi Calm Calm - N/A   Overcast
12:34 AM 40.1 °F - 38.8 °F 95% 30.15 in 2.5 mi Calm Calm - N/A   Overcast
12:53 AM 39.9 °F - 38.7 °F 95% 30.15 in 2.0 mi Calm Calm - N/A   Overcast
1:14 AM 40.1 °F - 39.2 °F 97% 30.14 in 2.0 mi Calm Calm - N/A   Overcast
1:34 AM 40.3 °F 38.2 °F 39.4 °F 97% 30.14 in 1.8 mi North 3.5 mph - N/A   Overcast
1:54 AM 40.3 °F - 39.4 °F 97% 30.14 in 2.0 mi Calm Calm - N/A   Overcast
2:14 AM 41.0 °F 38.0 °F 40.1 °F 97% 30.15 in 2.5 mi NNE 4.6 mph - N/A   Overcast
2:34 AM 41.0 °F 39.0 °F 40.1 °F 97% 30.15 in 2.0 mi NE 3.5 mph - N/A   Overcast
2:54 AM 41.4 °F - 40.3 °F 96% 30.15 in 2.0 mi Calm Calm - N/A   Overcast
3:14 AM 41.2 °F 39.2 °F 40.1 °F 96% 30.15 in 2.0 mi NE 3.5 mph - N/A   Overcast
3:34 AM 41.5 °F 39.6 °F 40.6 °F 97% 30.15 in 2.0 mi NE 3.5 mph - N/A   Overcast
3:54 AM 42.8 °F 40.1 °F 41.5 °F 95% 30.15 in 2.5 mi East 4.6 mph - N/A   Overcast
4:14 AM 44.6 °F 42.2 °F 41.9 °F 90% 30.15 in 4.0 mi East 4.6 mph - N/A   Overcast
4:34 AM 44.6 °F 42.2 °F 41.9 °F 90% 30.15 in 4.0 mi East 4.6 mph - N/A   Overcast
4:54 AM 44.6 °F 41.4 °F 42.1 °F 91% 30.15 in 4.0 mi East 5.8 mph - N/A   Overcast
5:14 AM 45.0 °F 42.6 °F 42.3 °F 90% 30.16 in 4.0 mi East 4.6 mph - N/A   Overcast
5:34 AM 45.0 °F 42.6 °F 42.3 °F 90% 30.16 in 4.0 mi East 4.6 mph - N/A   Overcast
5:54 AM 44.8 °F 43.3 °F 42.1 °F 90% 30.17 in 4.0 mi East 3.5 mph - N/A   Mostly Cloudy
6:14 AM 44.6 °F 41.4 °F 42.1 °F 91% 30.17 in 3.0 mi East 5.8 mph - N/A   Mostly Cloudy
6:34 AM 45.0 °F 40.6 °F 42.1 °F 90% 30.16 in 3.0 mi ESE 8.1 mph - N/A   Mostly Cloudy
6:54 AM 45.0 °F 40.6 °F 42.1 °F 90% 30.16 in 3.0 mi ESE 8.1 mph - N/A   Mostly Cloudy
7:14 AM 45.0 °F 40.6 °F 41.5 °F 88% 30.17 in 4.0 mi ESE 8.1 mph - N/A   Mostly Cloudy
7:34 AM 45.3 °F 41.1 °F 41.4 °F 86% 30.17 in 3.0 mi East 8.1 mph - N/A   Overcast
7:54 AM 45.5 °F 40.3 °F 41.4 °F 85% 30.17 in 3.0 mi East 10.4 mph - N/A   Overcast
8:14 AM 45.5 °F 39.9 °F 41.2 °F 85% 30.17 in 3.0 mi East 11.5 mph - N/A   Overcast
8:34 AM 45.5 °F 40.3 °F 41.2 °F 85% 30.18 in 3.0 mi East 10.4 mph - N/A   Overcast
8:54 AM 45.5 °F 39.6 °F 40.5 °F 83% 30.16 in 4.0 mi East 12.7 mph 19.6 mph N/A   Overcast
9:14 AM 45.1 °F 39.9 °F 41.0 °F 85% 30.16 in 4.0 mi East 10.4 mph 16.1 mph N/A Rain Light Rain
9:34 AM 45.3 °F 39.7 °F 40.5 °F 83% 30.15 in 4.0 mi East 11.5 mph 21.9 mph N/A Rain Light Rain
9:54 AM 45.1 °F 39.9 °F 41.2 °F 86% 30.15 in 4.0 mi ESE 10.4 mph 18.4 mph N/A Rain Light Rain
10:14 AM 45.5 °F 38.9 °F 41.2 °F 85% 30.14 in 4.0 mi East 15.0 mph 19.6 mph N/A   Overcast
10:34 AM 45.9 °F 40.4 °F 41.2 °F 84% 30.15 in 4.0 mi ESE 11.5 mph 17.3 mph N/A   Light Drizzle
10:54 AM 46.0 °F 41.0 °F 41.2 °F 83% 30.15 in 4.0 mi ESE 10.4 mph 16.1 mph N/A   Haze
11:14 AM 46.0 °F 41.0 °F 41.4 °F 84% 30.14 in 4.0 mi ESE 10.4 mph - N/A   Overcast
11:34 AM 45.9 °F 42.3 °F 42.8 °F 89% 30.15 in 2.0 mi ESE 6.9 mph - N/A   Overcast
11:54 AM 45.7 °F 41.0 °F 42.8 °F 90% 30.13 in 2.0 mi East 9.2 mph - N/A   Overcast
12:13 PM 45.7 °F 42.0 °F 43.2 °F 91% 30.13 in 1.8 mi East 6.9 mph - N/A   Overcast
12:34 PM 45.7 °F 42.0 °F 43.5 °F 92% 30.11 in 1.5 mi East 6.9 mph - N/A   Overcast
12:54 PM 45.7 °F 40.6 °F 43.7 °F 93% 30.10 in 1.5 mi East 10.4 mph - N/A   Overcast
1:13 PM 45.7 °F 41.0 °F 43.7 °F 93% 30.10 in 1.2 mi East 9.2 mph - N/A Rain Rain
1:34 PM 45.7 °F 41.0 °F 44.2 °F 95% 30.09 in 1.2 mi ESE 9.2 mph - N/A Rain Light Rain
1:54 PM 45.9 °F 40.8 °F 44.6 °F 95% 30.07 in 1.0 mi East 10.4 mph 16.1 mph N/A Rain Light Rain
2:14 PM 46.4 °F 41.5 °F 45.0 °F 95% 30.06 in 1.2 mi ESE 10.4 mph - N/A Rain Light Rain
2:34 PM 46.4 °F 41.1 °F 45.0 °F 95% 30.06 in 1.2 mi ESE 11.5 mph 17.3 mph N/A   Overcast
2:54 PM 46.6 °F - 45.1 °F 95% 30.05 in 1.5 mi ESE 11.5 mph 17.3 mph N/A   Overcast
3:14 PM 46.6 °F - 44.8 °F 93% 30.05 in 1.8 mi SE 10.4 mph 17.3 mph N/A   Overcast
3:34 PM 46.9 °F - 44.8 °F 92% 30.04 in 2.0 mi ESE 12.7 mph 21.9 mph N/A   Overcast
3:54 PM 47.3 °F - 44.8 °F 91% 30.03 in 2.0 mi SE 16.1 mph 19.6 mph N/A   Overcast
4:14 PM 47.3 °F - 44.8 °F 91% 30.04 in 2.5 mi ESE 9.2 mph - N/A   Overcast
4:34 PM 47.5 °F - 45.0 °F 91% 30.03 in 2.5 mi SE 10.4 mph 19.6 mph N/A   Overcast
4:54 PM 47.7 °F - 45.1 °F 91% 30.02 in 2.5 mi ESE 15.0 mph - N/A   Overcast
5:14 PM 47.7 °F - 45.1 °F 91% 30.01 in 2.5 mi ESE 12.7 mph 19.6 mph N/A   Overcast
5:34 PM 47.8 °F - 45.5 °F 92% 30.02 in 4.0 mi SE 10.4 mph - N/A   Overcast
5:54 PM 48.2 °F - 45.5 °F 90% 30.01 in 4.0 mi SE 9.2 mph - N/A   Overcast
6:14 PM 48.0 °F - 45.5 °F 91% 30.01 in 5.0 mi SE 11.5 mph 17.3 mph N/A   Overcast
6:34 PM 48.2 °F - 45.5 °F 90% 30.00 in 5.0 mi SSE 5.8 mph - N/A   Overcast
6:54 PM 48.6 °F - 45.5 °F 89% 30.00 in 5.0 mi SSE 12.7 mph - N/A   Mostly Cloudy
7:14 PM 48.7 °F - 45.5 °F 89% 30.00 in 7.0 mi SSE 6.9 mph - N/A Rain Light Rain
7:34 PM 48.4 °F - 45.7 °F 90% 29.99 in 5.0 mi SSE 11.5 mph - N/A Rain Light Rain
7:54 PM 48.2 °F - 45.9 °F 92% 29.98 in 5.0 mi SSE 8.1 mph - N/A Rain Light Rain
8:14 PM 48.4 °F - 45.9 °F 91% 29.99 in 5.0 mi South 3.5 mph - N/A   Mostly Cloudy
8:34 PM 48.0 °F - 45.5 °F 91% 29.99 in 5.0 mi South 4.6 mph - N/A   Scattered Clouds
8:54 PM 48.2 °F - 45.3 °F 90% 29.98 in 7.0 mi SSE 5.8 mph - N/A   Clear
9:14 PM 48.4 °F - 45.3 °F 89% 29.98 in 7.0 mi SSE 6.9 mph - N/A   Clear
9:34 PM 48.2 °F - 45.0 °F 89% 29.98 in 7.0 mi South 6.9 mph - N/A   Clear
9:54 PM 47.7 °F - 45.0 °F 90% 29.96 in 7.0 mi South 8.1 mph - N/A   Clear
10:14 PM 47.8 °F - 45.0 °F 90% 29.96 in 7.0 mi South 5.8 mph - N/A   Clear
10:34 PM 48.4 °F - 45.0 °F 88% 29.95 in 7.0 mi South 6.9 mph - N/A   Clear
10:54 PM 48.2 °F - 44.8 °F 88% 29.94 in 7.0 mi South 6.9 mph - N/A   Clear
11:14 PM 48.4 °F - 44.8 °F 87% 29.93 in 7.0 mi South 6.9 mph - N/A   Clear
11:34 PM 48.4 °F - 44.8 °F 87% 29.93 in 7.0 mi South 8.1 mph - N/A   Clear
11:54 PM 49.3 °F - 45.1 °F 86% 29.93 in 7.0 mi SSW 8.1 mph - N/A   Clear